Regional Weather Roundup
Issued by NWS State College, PA

Home | Current Version | Previous Version | Text Only | Print | Product List | Glossary Off
Versions: 1 2 3 4 5 6 7 8 9 10 11 12 13 14 15 16 17 18 19 20 21 22 23 24 25 26 27 28 29 30 31 32 33 34 35 36 37 38 39 40 41 42 43 44 45 46 47 48 49 50

000
ASUS41 KCTP 210910
RWRCTP

REGIONAL WEATHER ROUNDUP
NATIONAL WEATHER SERVICE STATE COLLEGE PA
400 AM EST SUN DEC 21 2014

Note: "fair" indicates few or no clouds below 12,000 feet with no
significant weather and/or obstructions to visibility.

* = STATION THAT DOES NOT REPORT PRECIPITATION /E.G. RAIN...SNOW...ETC/
    THUNDER OR FOG.

PAZ002>004-007>009-013>016-020>023-029>032-211000-
WESTERN PENNSYLVANIA

CITY           SKY/WX    TMP DP  RH WIND       PRES   REMARKS
ERIE           CLOUDY    30  22  72 S6        30.29R
MEADVILLE      CLOUDY    27  22  81 CALM      30.25R
FRANKLIN*      CLOUDY    27  21  80 CALM      30.26S
NEW CASTLE       N/A     28  24  85 CALM      30.30R
BEAVER COUNTY  NOT AVBL
BUTLER*        CLOUDY    25  21  86 CALM      30.28S
PITTSBURGH INT CLOUDY    28  21  75 CALM      30.27S
PITTSBURGH     CLOUDY    28  18  66 CALM      30.26S
INDIANA*       CLOUDY    27  23  86 CALM      30.29S
LATROBE        CLOUDY    27  25  93 CALM      30.28S
WASHINGTON CO* NOT AVBL
$$

PAZ004>006-010>012-017>019-024>028-033>037-041-042-045-046-049>053-211000-
CENTRAL PENNSYLVANIA

CITY           SKY/WX    TMP DP  RH WIND       PRES   REMARKS
BRADFORD       CLOUDY    23  19  85 W3        30.20R
DUBOIS         CLOUDY    25  22  88 CALM      30.21S
CLEARFIELD     CLOUDY    26  20  77 CALM      30.24S
JOHNSTOWN      CLOUDY    23  19  85 CALM      30.19R
ALTOONA        CLOUDY    26  23  88 CALM      30.24S
STATE COLLEGE  CLOUDY    27  24  87 CALM      30.25S
WILLIAMSPORT   CLOUDY    31  21  66 NW5       30.28S
SELINSGROVE    CLOUDY    31  22  69 NW3       30.29F
FT INDIANTOWN  CLOUDY    29  24  80 SW5       30.29R
CAPITAL CITY   CLOUDY    28  23  81 CALM      30.30S
HARRISBURG     CLOUDY    28  22  78 CALM      30.30R
YORK           CLOUDY    25  23  92 CALM      30.29S
$$

PAZ038>040-043-044-047-048-054-055-060>062-067>071-211000-
EASTERN PENNSYLVANIA

CITY           SKY/WX    TMP DP  RH WIND       PRES   REMARKS
SCRANTON       CLOUDY    29  19  66 NW5       30.25S
MOUNT POCONO   CLOUDY    24  19  81 N3        30.19S
ALLENTOWN      CLOUDY    31  21  66 CALM      30.28F
QUAKERTOWN*    CLOUDY    30  23  74 CALM      30.28F
READING        CLOUDY    30  23  75 CALM      30.28F
LANCASTER      PTCLDY    27  22  81 W5        30.29S
COATESVILLE    PTSUNNY   28  25  86 CALM      30.27F
POTTSTOWN      CLOUDY    30  21  69 CALM      30.29F
BLUE BELL      CLOUDY    32  27  80 CALM      30.28F
DOYLESTOWN     CLOUDY    29  22  75 CALM      30.27F
WILLOW GROVE   NOT AVBL
NORTH PHILA    CLOUDY    33  21  61 N3        30.31S
PHILADELPHIA   CLOUDY    33  23  66 CALM      30.31S
$$


USA.gov is the U.S. government's official web portal to all federal, state and local government web resources and services.